Regional Weather Roundup
Issued by NWS Newport/Morehead, NC

Current Version | Previous Version | Graphics & Text | Print | Product List | Glossary On
Versions: 1 2 3 4 5 6 7 8 9 10 11 12 13 14 15 16 17 18 19 20 21 22 23 24 25 26 27 28 29 30 31 32 33 34 35 36 37 38 39 40 41 42 43 44 45 46 47 48 49 50
000 ASUS42 KMHX 230010 RWRMHX WEATHER ROUNDUP FOR EASTERN NORTH CAROLINA NATIONAL WEATHER SERVICE NEWPORT/MOREHEAD CITY NC 800 PM EDT WED OCT 22 2014 NOTE: "FAIR" INDICATES FEW OR NO CLOUDS BELOW 12,000 FEET WITH NO SIGNIFICANT WEATHER AND/OR OBSTRUCTIONS TO VISIBILITY NCZ015>017-031-032-045>047-102-103-230100- NORTH COAST CITY SKY/WX TMP DP RH WIND PRES REMARKS EDENTON CLOUDY 57 49 74 N14G20 29.92R ELIZABETH CITY CLOUDY 58 49 72 NW16G25 29.89R KITTY HAWK CLOUDY 57 51 79 NW10G25 29.85R MANTEO CLOUDY 57 50 76 NW18G30 29.87R $$ NCZ045>047-081-094-103-104-230100- CENTRAL COAST CITY SKY/WX TMP DP RH WIND PRES REMARKS FRISCO CLOUDY 58 51 78 NW21G32 29.88R SWANQUARTER N/A 57 N/A N/A NW10G16 29.88S $$ NCZ095-097-098-100-101-230100- SOUTHERN COAST CITY SKY/WX TMP DP RH WIND PRES REMARKS BEAUFORT CLOUDY 59 49 69 W13 29.94R CEDAR ISLAND N/A 61 N/A N/A NW18G32 29.94S JACKSONVILLE PTCLDY 54 49 83 W7 29.96R PINEY ISLAND CLEAR 61 49 64 NW12 29.92R WILMINGTON PTCLDY 59 47 64 NW3 29.98R $$ NCZ011>013-027>030-043-044-078>080-089-090>093-098-230100- COASTAL PLAIN CITY SKY/WX TMP DP RH WIND PRES REMARKS AHOSKIE CLOUDY 56 46 69 NW7G17 29.96R CLINTON CLEAR 58 45 62 CALM 29.99R ELIZABETHTOWN PTCLDY 61 46 57 NW3 29.99R GOLDSBORO PTCLDY 60 47 63 CALM 29.95R GREENVILLE MOCLDY 55 50 82 CALM 29.98R HAVELOCK MOCLDY 58 49 72 W7 29.95R KENANSVILLE CLEAR 58 43 57 NW5 29.98R KINSTON MOCLDY 59 46 63 W5 29.96R NEW BERN PTCLDY 58 49 72 NW5 29.95R RICHLANDS PTCLDY 55 45 67 W3 29.97R ROCKY MOUNT CLOUDY 59 47 64 NW6 29.97R WASHINGTON PTCLDY 56 48 74 NW6 29.95R WHITEVILLE CLEAR 55 48 77 CALM 29.99R $$ AMZ130-135-150-152-154-156-158-170-250-252-270-ANZ085-086-088-633-658-670-230100- MARINE OBSERVATIONS STATION/POSITION TIME TEMP WIND PRES WAVE SWELL AIR SEA DIR/SP/G HT/PER HT/PER (UTC) (F) (DEG/KT/KT) (MB) (FT/S) (FT/S) CHESAPEAKE LIGHT 2300 57 330/ 33/ 36 1009.7 64 E VA BEACH 0000 61 69 340/ 27/ 33 1006.5 9/ 6 2/12 DUCK 0000 57 68 310/ 19/ 25 1010.1 2 E DUCK 0000 N/A 4/ 6 10 NE DUCK 0000 70 N/A 7/ 6 OREGON INLET 0000 58 64 310/ 20/ 26 1010.6 13E OREGON INLT 0000 72 N/A 7/ 6 HATTERAS CG 0000 60 67 320/ 28/ 33 1011.9 DIAMOND BUOY 0000 61 310/ 27/ 31 1010.9 6/ 5 2/10 17 S OCRACOKE NOT AVBL CAPE LOOKOUT 2300 61 330/ 10/ 12 1013.3 BEAUFORT LAB 0000 60 69 300/ 6/ 11 1013.1 30 SE NEW RIVER 0000 65 76 310/ 16/ 19 1013.4 4/ 5 5 SE WRIGHTSVLE 0000 63 73 320/ 12/ 14 N/A 225 S CAPE HAT NOT AVBL 41 SE CHARLESTON 0000 67 78 340/ 12/ 16 1016.0 3/ 6 2/ 6 $$

USA.gov is the U.S. government's official web portal to all federal, state and local government web resources and services.